Regional Weather Roundup
Issued by NWS Cleveland, OH

Home | Current Version | Previous Version | Graphics & Text | Print | Product List | Glossary On
Versions: 1 2 3 4 5 6 7 8 9 10 11 12 13 14 15 16 17 18 19 20 21 22 23 24 25 26 27 28 29 30 31 32 33 34 35 36 37 38 39 40 41 42 43 44 45 46 47 48 49 50
000
ASUS41 KCLE 270810
RWRCLE
OHIO REGIONAL WEATHER ROUNDUP
NATIONAL WEATHER SERVICE WILMINGTON, OH
400 AM EDT SAT AUG 27 2016

NOTE: "FAIR" INDICATES FEW OR NO CLOUDS BELOW 12,000 FEET WITH NO
SIGNIFICANT WEATHER AND/OR OBSTRUCTIONS TO VISIBILITY.

OHZ001>008-015>018-024>027-034-035-043-044-270900-
   NORTHWEST OHIO

CITY           SKY/WX    TMP DP  RH WIND       PRES   REMARKS
DEFIANCE       FAIR      72  64  76 E3        30.13F
FINDLAY        FAIR      71  60  68 SE5       30.13S
TOLEDO EXPRESS FAIR      69  67  93 CALM      30.13F
TOLEDO EXEC    FAIR      69  65  86 E3        30.15S
LIMA           FAIR      68  66  93 E5        30.14S
$$

OHZ009>014-019>023-028>033-038-089-270900-
   NORTHEAST OHIO

CITY           SKY/WX    TMP DP  RH WIND       PRES   REMARKS
CLE-HOPKINS    FAIR      67  58  72 S3        30.18S
CLE-LAKEFRONT  FAIR      70  59  68 CALM      30.14S
CUY CO. ARPT   NOT AVBL
LORAIN-ELYRIA  FAIR      62  58  86 CALM      30.17R
ASHTABULA      FAIR      59  59 100 CALM      30.19R
AKRON-CANTON   FAIR      68  59  73 E6        30.17F
WOOSTER        FAIR      63  60  90 NE3       30.18S
MANSFIELD      FAIR      69  60  73 E5        30.17S
YOUNGSTOWN     FAIR      62  60  93 E5        30.19R
$$

OHZ042-051>053-060>062-070>072-077>081-270900-
  SOUTHWEST OHIO

CITY           SKY/WX    TMP DP  RH WIND       PRES   REMARKS
CINC-COVINGTON CLOUDY    75  72  90 CALM      30.10F
CINC-LUNKEN    FAIR      72  72 100 CALM      30.10S FOG
HAMILTON       FAIR      69  68  96 CALM      30.11S
DAYTON         FAIR      72  69  90 E5        30.13F
WRIGHT-PAT AFB FAIR      72  71  95 N5        30.11F
DAYTON GENERAL FAIR      74  68  81 E6        30.11S
WILMINGTON     FAIR      72  70  93 E3        30.12S
$$

OHZ036-037-039>041-045>050-054>059-063>069-073>076-082>088-270900-
  CENTRAL AND SOUTHEAST OHIO

CITY           SKY/WX    TMP DP  RH WIND       PRES   REMARKS
COLUMBUS       FAIR      73  64  73 E3        30.12S
OSU AIRPORT    FAIR      70  65  84 NE3       30.14R
BOLTON FIELD   FAIR      72  67  83 CALM      30.14S
RICKENBACK AFB FAIR      72  68  87 NE3       30.12S
NEWARK         FAIR      69  66  90 CALM      30.14S
MARION         FAIR      67  62  84 CALM      30.15S
LANCASTER      FAIR      69  68  96 CALM      30.14S
ZANESVILLE     FAIR      69  67  93 CALM      30.14S
NEW PHILLY     FAIR      68  62  81 CALM      30.17R
$$




USA.gov is the U.S. government's official web portal to all federal, state and local government web resources and services.